Aérodrome :
LOGIN :

S'inscrire | Disclaimer

   EN    FR    IT 

 










Légende :    VFR   VFR Marginal   IFR   IFR Intensif   IFR Très Intensif
Visi : 
Plafond : 
>= 8 km
>= 3000ft
5 à 8 km
1000 à 3000 ft
1500m à 5 km
500 à 1000 ft
800 à 1500m
200 à 500 ft
< 800m
< 200 ft
Symboles :   Orages  Brouillard  Fortes neiges  Fortes précipitations  Vent > 20 kt
SIGMETs :   Divers  Orages  Givrage  Turbulence  Onde Orograph.  Cendres Volcan.







- Altitude de l'aérodrome : 239 ft
- Code IATA : VRN


LIPX - Villafranca Int. Verona

DERNIER METAR :
  • 211520Z 24006KT 200V260 CAVOK 23/05 Q1017

METARs EXPIRÉS :
  • 211450Z 21007KT CAVOK 22/05 Q1018
  • 211420Z 21007KT 190V260 CAVOK 23/06 Q1018
  • 211350Z 25006KT 180V290 CAVOK 23/06 Q1018
  • 211320Z 22008KT 190V260 CAVOK 22/06 Q1018
  • 211250Z 27006KT 210V310 CAVOK 22/06 Q1018

TAF TAF LIPX
Valide du 21 à 15h jusqu'au 22 à 00h UTC


211400Z 2115/2124 VRB05KT CAVOK
Pas de NOTAMs connus pour ce terrain.



MET'MAP, la Météo Aéronautique d'un coup d'oeil ! - Copyright ORBIFLY Décembre 2007 - Disclaimer

ORBIFLY MET'MAP TEAM :

Programmation & Développement : Alexandra Zaïnal
Conception & Développement : Baudouin d'Aumeries
Co-Programmation & Développement : Marc-Olivier Méhu
Soutien technique & logistique : Manuel Goepfert

Contact : metmap@orbifly.com




SOURCES & CREDITS :

   NOAA